Location: New Mesquite
(33.1168°N, 96.4336°W)
Time: 10:05:04
(UTC+00:00)

Okean 1 - Pass Details

Date: 12 July 2022
Orbit: 532 x 553 km, 82.5° (Epoch: 14 August)

Event Time Altitude Azimuth Distance (km) Brightness Sun altitude
Rises 09:35:23 0° 331° (NNW) 2,679 7.0 -19.6°
Reaches altitude 10° 09:38:15 10° 308° (NW) 1,783 5.8 -19.2°
Enters shadow 09:38:59 13° 299° (WNW) 1,628 5.5 -19.1°
